Temperature
19 19 19 18 18 18 18 18 17 17 17 17 16 16 16 16 15 15 15 15 15 15 15 15 15 15 15 15 15 15 14 14 14 14 14 14 14 14 14 14 14 14 14
19 19 19 19 18 18 18 18 17 17 17 17 16 16 16 16 15 15 15 15 15 15 15 15 15 15 15 15 15 15 14 14 14 14 14 14 14 14 14 14 14 14 14
19 19 19 19 19 18 18 18 18 17 17 17 16 16 16 16 15 15 15 15 15 15 15 15 15 15 15 15 14 14 14 14 14 14 14 14 13 13 13 14 14 14 14
19 19 19 19 19 19 18 18 18 17 17 17 17 16 16 16 16 15 15 15 15 15 15 15 15 15 14 14 14 14 14 14 14 14 14 14 13 13 13 13 13 13 13
20 20 20 19 19 19 18 18 18 18 17 17 17 17 16 16 16 15 15 15 15 15 15 15 14 14 14 14 14 14 14 14 14 14 13 13 13 13 13 13 13 13 13
20 20 20 19 19 19 19 18 18 18 17 17 17 17 16 16 16 16 15 15 15 15 15 14 14 14 14 14 14 14 14 13 13 13 13 13 13 13 13 12 12 13 13
20 20 20 20 19 19 19 18 18 18 18 17 17 17 16 16 16 16 15 15 15 15 15 14 14 14 14 14 14 14 13 13 13 13 13 13 13 13 12 12 12 12 12
20 20 20 20 20 20 19 19 18 18 18 17 17 17 17 16 16 16 15 15 15 15 15 14 14 14 14 14 14 13 13 13 13 13 13 13 13 12 12 12 12 12 12
21 21 20 20 20 20 19 19 19 18 18 18 17 17 17 16 16 16 15 15 15 15 15 14 14 14 14 14 13 13 13 13 13 13 13 12 12 12 12 12 12 11 11
21 21 21 21 20 20 20 19 19 18 18 18 17 17 17 16 16 16 15 15 15 15 15 14 14 14 14 13 13 13 13 13 13 13 12 12 12 12 12 12 12 11 11
21 21 21 21 20 20 20 19 19 18 18 18 17 17 17 17 16 16 15 15 15 15 15 14 14 14 14 13 13 13 13 13 13 12 12 12 12 12 12 11 11 11 11
21 21 21 21 20 20 20 19 19 18 18 18 17 17 17 17 16 16 15 15 15 15 14 14 14 14 13 13 13 13 13 13 12 12 12 12 12 12 11 11 11 11 11
21 21 21 20 20 20 19 19 19 18 18 18 17 17 17 17 16 16 16 15 15 15 14 14 14 14 13 13 13 13 12 12 12 12 12 12 11 11 11 11 11 11 11
20 21 21 20 20 20 20 19 19 18 18 18 17 17 17 17 16 16 15 15 15 15 14 14 14 13 13 13 13 12 12 12 12 12 11 11 11 11 11 11 11 11 10
20 21 21 20 20 20 19 19 19 18 18 18 17 17 17 16 16 16 15 15 15 15 14 14 14 13 13 13 12 12 12 12 11 11 11 11 11 11 11 11 10 10 10
21 21 21 20 20 20 19 19 19 18 18 17 17 17 17 16 16 16 15 15 15 15 14 14 14 13 13 13 12 12 12 12 11 11 11 11 11 11 10 10 10 10 10
21 21 21 21 20 20 19 19 19 18 18 17 17 17 16 16 16 15 15 15 15 14 14 14 14 13 13 13 12 12 12 12 11 11 11 11 11 10 10 10 10 10 10
21 21 21 20 20 20 19 19 19 18 18 17 17 17 16 16 16 15 15 15 15 14 14 14 13 13 13 12 12 12 12 12 11 11 11 11 10 10 10 10 10 10 10
21 21 21 20 20 19 19 19 18 18 18 17 17 17 16 16 16 15 15 15 14 14 14 14 13 13 13 12 12 12 11 11 11 11 11 10 10 10 10 10 10 10 9
20 20 20 20 19 19 19 18 18 18 18 17 17 16 16 16 16 15 15 14 14 14 13 13 13 13 13 12 12 11 11 11 11 11 10 10 10 10 9 9 9 9 9
20 20 20 19 19 19 18 18 18 17 17 17 16 16 16 16 15 15 15 14 14 13 13 13 13 12 12 12 12 11 11 11 11 10 10 10 10 9 9 9 9 9 9
19 19 19 19 18 18 18 18 18 17 17 16 16 16 16 15 15 15 14 14 13 13 13 13 13 12 12 12 11 11 11 11 10 10 10 10 10 9 9 9 9 9 8
19 18 18 18 18 17 17 17 17 17 16 16 16 16 15 15 15 14 14 14 13 13 13 12 12 12 12 11 11 11 11 10 10 10 10 10 9 9 9 9 8 8 8
18 18 17 17 17 17 17 16 16 16 16 16 15 15 15 14 14 14 13 13 13 13 12 12 12 12 11 11 11 11 10 10 10 10 10 9 9 9 9 8 8 8 8
17 17 17 17 16 16 16 16 15 15 15 15 14 14 14 14 13 13 13 13 12 12 12 12 11 11 11 11 11 10 10 10 9 9 9 9 9 9 8 8 8 8 8
16 16 16 16 16 15 15 15 15 14 14 14 14 13 13 13 13 13 12 12 12 12 11 11 11 11 10 10 10 10 10 9 9 9 8 8 8 8 8 8 8 8 7
Wind_Speed
5 4 5 5 6 5 5 5 6 5 5 3 3 3 2 2 3 5 8 8 8 8 8 6 6 6 5 4 4 3 5 5 4 3 4 5 5 6 6 6 7 9 11
5 5 5 5 6 6 6 5 6 5 4 3 3 3 3 2 1 3 6 8 7 7 6 6 4 5 4 6 6 4 3 4 5 3 3 4 5 5 6 5 6 7 9
10 8 7 7 6 7 7 7 6 5 4 4 4 4 3 3 3 3 3 5 7 7 7 6 5 5 4 4 5 4 4 3 4 4 3 3 1 3 4 5 6 7 6
8 8 8 8 8 8 6 6 6 5 5 5 5 5 3 2 1 0 1 3 6 7 7 6 6 5 4 4 4 4 3 3 2 3 4 2 2 1 2 4 4 6 7
10 10 10 10 8 7 7 6 6 5 5 5 6 6 4 2 1 1 2 3 4 6 6 6 5 5 4 4 4 5 5 3 2 2 2 3 3 2 2 2 4 5 4
9 9 8 7 7 6 6 6 6 5 5 5 5 6 6 5 3 2 1 2 2 3 5 5 5 5 4 4 4 4 5 4 3 3 2 2 2 1 1 0 2 3 4
10 9 9 9 9 9 8 7 8 6 6 6 5 6 6 6 5 3 2 1 1 1 2 3 3 3 3 4 4 4 4 3 4 3 2 2 1 1 1 1 0 2 3
10 10 11 11 10 10 9 9 9 7 7 6 6 5 5 4 3 3 3 2 2 1 0 2 3 4 4 4 4 3 3 3 4 4 3 2 2 1 1 1 1 1 3
10 10 10 10 10 10 11 11 10 8 7 7 6 6 5 5 4 3 3 2 2 1 2 2 3 3 3 4 4 3 3 3 3 3 3 2 2 1 1 1 1 2 0
8 9 9 9 9 9 9 9 9 9 7 7 6 6 5 5 4 4 3 3 2 2 2 2 2 3 3 3 3 2 2 3 3 2 3 3 2 2 2 1 1 1 2
9 9 8 8 8 7 8 8 8 7 7 7 6 5 5 5 4 4 4 3 2 2 3 2 3 2 2 3 3 2 2 3 3 3 3 3 2 2 2 1 1 1 1
8 8 8 7 7 8 8 8 8 8 8 7 6 6 5 5 5 4 4 4 3 3 3 3 3 2 2 2 2 1 2 2 1 2 2 2 2 2 2 1 1 1 0
6 6 6 7 8 8 8 8 8 8 7 7 7 6 6 6 6 5 4 4 4 3 3 3 3 2 2 2 1 1 1 1 0 0 0 1 1 2 1 1 1 1 1
6 7 7 7 8 8 9 9 8 8 8 8 8 7 7 7 7 6 5 5 5 4 4 3 3 2 2 2 2 1 1 1 0 1 0 1 1 1 1 1 1 0 1
6 7 7 7 7 7 8 8 8 7 8 8 8 8 7 6 6 5 5 4 4 4 4 3 2 2 2 3 3 2 2 1 0 1 1 1 1 1 1 1 1 0 0
6 7 7 7 8 8 8 8 8 8 8 8 9 7 6 6 6 6 5 5 4 4 3 4 3 3 3 4 4 3 2 2 1 1 2 2 2 3 3 3 1 1 1
6 7 7 8 9 9 9 9 9 8 8 8 8 7 7 7 7 6 6 6 5 4 4 4 4 3 4 5 5 5 3 2 2 2 2 2 2 2 2 3 3 3 4
5 6 6 6 6 6 6 6 6 7 8 8 7 7 7 7 6 6 6 6 4 5 5 5 5 4 5 6 5 5 2 2 3 3 4 3 3 3 2 1 2 3 4
4 5 5 6 6 6 6 6 6 6 7 7 8 8 8 8 7 7 7 5 5 5 5 4 5 5 5 7 6 5 2 2 3 4 4 4 4 6 5 2 3 4 5
1 2 3 4 5 4 6 7 6 6 7 8 8 7 8 9 9 8 6 4 5 5 5 5 5 5 6 8 8 6 3 3 3 3 4 6 6 8 7 4 4 5 6
2 3 5 5 4 5 7 7 6 7 7 6 5 6 7 8 7 6 5 4 4 4 4 4 4 5 6 8 9 8 4 5 4 4 4 5 9 10 9 7 5 8 7
3 4 4 3 3 5 7 6 5 5 3 4 5 5 5 5 5 6 4 4 5 4 4 3 4 4 5 6 8 9 9 7 5 6 5 6 10 10 10 8 8 10 8
2 3 4 4 3 3 5 5 4 2 4 4 4 4 4 4 4 5 5 3 4 4 4 4 4 5 4 5 9 9 9 9 6 6 9 10 10 9 7 9 10 7 4
2 3 4 4 2 2 3 3 2 4 5 4 3 3 3 3 3 3 4 4 5 4 4 4 5 5 4 4 4 4 5 6 6 6 7 9 9 7 7 7 6 4 4
1 3 4 3 2 2 1 1 3 5 5 4 3 3 3 3 2 2 3 4 5 6 6 6 5 5 6 8 8 5 5 5 6 4 2 3 3 4 4 4 5 4 4
2 3 3 3 2 2 2 2 2 4 5 3 2 2 2 2 2 2 1 3 4 6 8 7 6 6 8 9 8 8 8 9 7 3 3 4 5 6 6 6 6 5 6
Wind_Direction
224 193 177 162 148 143 144 144 139 139 129 113 105 92 68 31 26 37 45 51 56 57 58 52 42 40 47 41 39 50 48 32 13 48 26 15 25 35 28 24 28 25 22
197 193 181 173 169 166 166 158 157 158 155 141 131 121 115 82 44 25 40 45 51 53 57 56 46 41 48 42 36 44 54 31 25 62 63 19 4 6 14 17 26 18 19
197 196 188 187 176 176 181 175 169 163 154 137 112 89 67 48 31 16 15 23 44 52 55 58 57 49 52 49 38 44 68 59 28 42 96 101 34 329 343 7 19 13 15
199 196 190 188 189 189 179 168 165 158 151 143 141 140 139 140 185 343 5 22 43 49 51 55 59 58 54 50 39 50 60 82 54 31 43 85 137 103 347 342 359 11 17
198 197 195 192 191 182 174 169 158 152 150 152 153 142 136 141 118 68 49 33 30 41 47 54 61 60 56 54 51 52 54 62 79 65 54 58 54 64 105 339 337 351 354
198 197 192 181 181 174 168 164 160 161 155 155 155 154 152 147 132 112 79 31 15 23 38 56 62 63 60 57 55 57 60 59 66 65 66 85 84 66 93 83 326 330 325
191 188 184 185 185 180 177 172 168 171 165 160 165 167 163 161 165 170 165 138 41 9 3 48 58 58 61 67 67 62 56 56 63 59 53 59 78 151 141 134 318 342 326
192 192 193 190 189 185 180 177 178 178 171 170 175 169 165 165 175 180 178 179 188 217 28 69 73 67 69 74 73 65 57 60 63 60 57 49 25 43 136 153 141 11 351
196 196 192 189 188 186 185 184 182 180 177 177 172 168 171 173 180 178 171 180 192 174 115 92 80 73 75 83 82 68 54 60 57 57 58 49 15 28 33 114 153 147 17
194 193 190 189 189 188 183 180 183 184 180 177 178 176 176 177 170 156 164 176 177 131 122 106 93 82 75 83 83 74 60 66 44 43 50 37 14 23 28 46 77 147 166
195 192 191 187 180 173 174 179 183 180 178 180 178 169 172 168 159 161 174 176 168 154 149 140 121 107 90 80 87 78 72 68 38 27 41 20 10 28 18 32 52 72 143
192 186 179 172 172 177 179 182 184 186 187 180 174 174 169 163 164 173 179 169 167 159 153 140 131 126 115 106 113 103 77 85 47 7 23 1 13 19 7 24 27 13 191
174 170 168 176 184 186 186 185 186 189 181 172 172 174 174 175 181 185 181 169 164 158 148 144 146 149 147 137 144 139 120 123 191 294 11 327 15 1 342 2 10 352 8
173 173 181 189 190 190 189 188 191 186 179 174 177 184 191 190 188 183 178 174 168 166 166 169 169 169 165 165 169 151 135 127 323 301 279 286 259 270 287 322 316 343 25
175 183 189 191 189 190 193 193 192 187 181 178 187 197 192 182 175 175 178 173 172 179 173 168 174 179 182 190 179 171 166 163 202 330 309 284 287 305 279 285 237 172 34
198 194 191 190 193 195 197 193 192 189 179 185 196 192 178 178 182 183 177 172 176 176 169 180 186 200 216 207 200 182 172 179 191 265 302 304 317 328 336 327 308 242 225
210 201 199 199 201 201 196 196 194 179 178 189 190 182 178 184 190 185 176 183 187 182 186 197 195 212 233 222 212 206 184 195 212 229 260 286 294 310 330 326 331 319 303
216 211 205 201 199 191 187 181 167 172 181 187 188 183 181 188 186 182 188 194 188 187 196 205 209 216 237 229 221 216 187 205 229 234 233 242 269 271 268 275 311 302 297
213 207 199 188 176 175 171 156 160 170 180 192 195 190 184 185 184 193 200 197 189 197 203 205 207 214 239 238 228 217 187 221 249 252 243 236 248 266 269 252 271 288 292
152 154 144 134 148 164 155 154 166 174 195 204 202 191 186 187 193 200 198 191 193 205 204 214 215 218 235 243 235 226 196 222 250 263 263 260 259 266 261 239 241 265 272
91 112 121 131 153 153 150 157 170 198 209 200 188 183 188 193 195 191 188 185 187 188 202 220 231 231 238 247 243 234 213 216 234 251 258 259 267 269 265 252 237 254 263
79 97 115 121 122 138 148 159 195 210 178 166 172 182 185 191 186 178 182 178 176 188 209 224 250 253 250 247 249 244 238 229 223 240 247 253 265 269 269 262 258 264 269
93 100 117 113 106 138 152 171 205 158 142 145 165 177 172 177 170 174 177 174 179 194 214 219 240 257 255 254 255 253 250 242 234 242 250 258 265 268 268 266 267 267 257
91 106 109 111 119 150 162 180 155 138 134 140 151 152 150 154 156 169 177 182 191 202 215 225 239 252 258 255 252 250 253 253 252 256 263 268 269 261 260 269 273 259 244
100 115 125 133 143 132 113 88 120 132 130 132 136 141 147 157 164 181 197 202 210 205 209 222 225 233 252 252 240 233 236 233 235 243 257 260 267 266 267 267 266 259 256
121 119 122 125 123 112 96 79 110 131 132 130 136 150 153 159 166 179 268 268 245 248 239 236 230 238 246 262 261 251 249 248 242 229 243 254 255 256 260 263 267 261 254
Height
1556 1558 1560 1562 1564 1565 1566 1567 1568 1569 1570 1570 1570 1570 1570 1570 1570 1569 1569 1568 1567 1566 1565 1563 1562 1561 1560 1559 1558 1558 1557 1556 1556 1556 1555 1555 1555 1555 1554 1554 1553 1552 1551
1555 1557 1559 1561 1563 1565 1566 1567 1568 1569 1570 1571 1571 1571 1571 1571 1571 1570 1570 1569 1568 1567 1566 1565 1563 1562 1561 1560 1559 1559 1558 1557 1557 1557 1556 1556 1557 1556 1555 1555 1554 1553 1552
1553 1555 1557 1560 1562 1564 1565 1567 1568 1569 1570 1571 1571 1571 1571 1571 1571 1571 1570 1570 1569 1568 1567 1566 1565 1563 1562 1561 1560 1560 1559 1558 1558 1558 1558 1557 1557 1557 1557 1555 1555 1554 1553
1550 1553 1555 1558 1560 1563 1565 1567 1568 1569 1570 1571 1571 1571 1572 1572 1572 1571 1571 1570 1569 1569 1568 1567 1566 1565 1563 1562 1561 1561 1560 1559 1559 1558 1558 1558 1558 1557 1557 1556 1555 1554 1553
1547 1550 1553 1556 1559 1562 1564 1566 1567 1568 1569 1570 1571 1572 1572 1572 1572 1572 1571 1571 1570 1570 1569 1568 1567 1566 1564 1563 1562 1561 1561 1560 1559 1559 1558 1558 1558 1557 1557 1556 1555 1554 1553
1544 1548 1551 1554 1557 1560 1562 1564 1566 1567 1568 1570 1570 1571 1572 1572 1572 1572 1571 1571 1571 1570 1569 1568 1567 1566 1565 1564 1563 1562 1561 1561 1560 1559 1559 1558 1558 1557 1557 1556 1555 1554 1553
1541 1544 1548 1551 1554 1557 1560 1562 1564 1566 1567 1568 1570 1571 1571 1572 1572 1572 1572 1571 1571 1570 1570 1569 1568 1567 1566 1565 1564 1563 1562 1561 1561 1560 1559 1559 1558 1558 1557 1556 1555 1554 1553
1537 1541 1544 1548 1551 1555 1558 1560 1562 1564 1566 1567 1569 1570 1570 1571 1571 1571 1571 1571 1571 1570 1570 1569 1568 1568 1567 1566 1565 1564 1563 1562 1561 1561 1560 1559 1558 1558 1557 1556 1555 1553 1552
1534 1538 1542 1545 1549 1552 1555 1558 1561 1563 1564 1566 1567 1568 1569 1570 1570 1571 1571 1571 1570 1570 1570 1569 1568 1568 1567 1566 1565 1564 1563 1563 1562 1561 1560 1559 1559 1558 1557 1556 1555 1554 1552
1531 1535 1539 1542 1546 1549 1553 1556 1559 1561 1563 1564 1566 1567 1568 1569 1569 1570 1570 1570 1570 1569 1569 1569 1568 1567 1567 1566 1565 1564 1563 1563 1562 1561 1560 1559 1558 1558 1557 1556 1554 1553 1552
1528 1532 1536 1540 1543 1547 1550 1553 1556 1558 1561 1562 1564 1565 1567 1567 1568 1568 1568 1568 1568 1568 1568 1568 1567 1567 1566 1565 1565 1564 1563 1562 1562 1561 1560 1559 1558 1557 1556 1555 1554 1553 1551
1526 1530 1534 1537 1541 1544 1547 1550 1553 1556 1558 1560 1562 1563 1565 1566 1566 1567 1567 1567 1567 1567 1567 1567 1566 1566 1565 1565 1564 1563 1562 1562 1561 1560 1559 1558 1557 1556 1555 1554 1553 1552 1551
1524 1528 1531 1534 1537 1541 1544 1547 1550 1553 1556 1558 1559 1561 1563 1563 1564 1565 1565 1565 1565 1565 1565 1565 1565 1565 1564 1564 1563 1562 1561 1561 1560 1559 1558 1557 1556 1555 1554 1553 1552 1551 1550
1522 1525 1528 1531 1534 1538 1541 1544 1547 1550 1553 1555 1557 1558 1560 1561 1562 1563 1563 1564 1564 1564 1564 1564 1564 1563 1563 1562 1562 1561 1560 1559 1559 1558 1557 1556 1555 1554 1553 1552 1551 1550 1548
1520 1523 1525 1528 1531 1534 1537 1540 1544 1546 1549 1551 1553 1555 1557 1559 1560 1560 1561 1561 1562 1562 1562 1562 1562 1562 1561 1561 1560 1560 1559 1558 1557 1557 1556 1555 1554 1553 1552 1551 1550 1548 1547
1518 1521 1523 1525 1528 1531 1534 1537 1540 1543 1545 1548 1550 1552 1554 1556 1557 1558 1559 1559 1559 1559 1559 1560 1560 1559 1559 1559 1558 1558 1557 1556 1556 1555 1555 1554 1553 1552 1551 1549 1548 1547 1546
1516 1518 1521 1523 1525 1528 1531 1533 1536 1539 1542 1544 1547 1549 1551 1552 1554 1555 1556 1556 1556 1557 1557 1557 1557 1557 1557 1557 1556 1556 1555 1554 1554 1553 1553 1552 1551 1550 1549 1547 1546 1545 1544
1514 1516 1518 1521 1523 1526 1529 1531 1534 1536 1538 1540 1543 1545 1547 1549 1551 1552 1552 1553 1553 1554 1554 1554 1554 1554 1554 1554 1554 1553 1553 1552 1551 1551 1550 1549 1548 1547 1546 1545 1544 1542 1541
1513 1514 1516 1519 1521 1523 1526 1528 1530 1533 1535 1537 1539 1542 1544 1546 1547 1548 1549 1550 1550 1551 1551 1551 1551 1551 1551 1551 1551 1551 1550 1549 1548 1548 1547 1546 1545 1544 1543 1542 1540 1539 1538
1511 1513 1515 1517 1519 1521 1523 1526 1527 1529 1531 1533 1536 1538 1540 1542 1543 1545 1546 1546 1547 1547 1548 1548 1548 1548 1548 1548 1548 1547 1547 1546 1545 1544 1544 1543 1542 1541 1540 1538 1537 1535 1534
1511 1512 1513 1515 1517 1519 1521 1523 1524 1526 1529 1531 1533 1535 1537 1538 1540 1541 1542 1543 1543 1543 1544 1544 1544 1544 1544 1544 1544 1543 1543 1542 1541 1540 1539 1538 1538 1537 1535 1534 1533 1531 1530
1510 1511 1512 1513 1515 1517 1518 1520 1522 1524 1526 1528 1530 1531 1533 1535 1536 1537 1538 1539 1539 1539 1540 1540 1540 1540 1540 1540 1539 1539 1538 1538 1537 1535 1535 1534 1533 1532 1531 1529 1528 1527 1525
1509 1510 1511 1512 1513 1515 1516 1518 1520 1522 1523 1525 1526 1528 1529 1531 1532 1533 1534 1534 1535 1535 1535 1535 1535 1536 1536 1535 1535 1535 1534 1533 1532 1531 1530 1529 1528 1527 1525 1524 1523 1522 1520
1508 1509 1510 1511 1512 1513 1515 1516 1518 1519 1521 1522 1523 1524 1526 1527 1528 1529 1530 1530 1531 1531 1531 1531 1531 1531 1531 1530 1530 1529 1529 1528 1527 1526 1524 1523 1522 1521 1520 1519 1517 1516 1514
1507 1508 1508 1509 1510 1512 1513 1515 1516 1517 1518 1519 1520 1521 1522 1523 1524 1525 1526 1526 1527 1527 1527 1527 1526 1526 1525 1525 1525 1524 1523 1522 1521 1520 1518 1517 1516 1515 1513 1512 1511 1510 1508
1506 1506 1507 1508 1509 1510 1511 1513 1514 1515 1515 1516 1517 1518 1519 1520 1521 1521 1522 1522 1523 1523 1523 1523 1522 1521 1521 1521 1519 1518 1517 1516 1515 1514 1512 1511 1509 1508 1507 1505 1504 1503 1501